Miscellaneous Local Product
Issued by NWS North Platte, NE

Home | Current Version | Previous Version | Text Only | Print | Product List | Glossary On
Versions: 1 2 3 4 5 6 7 8 9 10 11 12 13 14 15 16 17 18 19 20 21 22 23 24 25 26 27 28 29 30 31 32 33 34 35 36 37 38 39 40 41 42 43 44 45 46 47 48 49 50
222
AXUS43 KLBF 211910
MISLBF


WESTERN AND NORTH CENTRAL NEBRASKA HOURLY WEATHER ROUNDUP
NATIONAL WEATHER SERVICE NORTH PLATTE NE
200 PM CDT SUN MAY 21 2017

NOTE: "FAIR" INDICATES FEW OR NO CLOUDS BELOW 12,000 FEET WITH NO
SIGNIFICANT WEATHER AND/OR OBSTRUCTIONS TO VISIBILITY.

NOTE: STATIONS NOT REPORTING VARIABLES SUCH AS SKY/WEATHER OR
PRESSURE ARE PROVIDED BY RAWS AND APRS NETWORKS AND ARE NOT UNDER
NATIONAL WEATHER SERVICE QUALITY CONTROL.

...OBSERVATIONS IN AND NEAR THE EASTERN PANHANDLE OF NEBRASKA...

CITY           SKY/WX    TMP DP  RH WIND       PRES   REMARKS
PINE RIDGE     PTSUNNY   63  37  38 W10       30.10F
GORDON         FAIR      63  40  42 NW9       30.11F
CHADRON        SUNNY     63  41  44 W14G21    30.11F
ALLIANCE       CLOUDY    59  40  49 SW21      30.12F
SIDNEY         MOSUNNY   62  37  39 VRB3      30.17F
CRESCENT LAKE    N/A     63  38  39 NW8G16      N/A
$$

...OBSERVATIONS IN NORTHERN NEBRASKA AND FAR SOUTHERN SOUTH DAKOTA...

CITY           SKY/WX    TMP DP  RH WIND       PRES   REMARKS
WINNER         FAIR      62  41  46 NW12      30.07F
VALENTINE      SUNNY     67  30  25 NW15G26   30.08F
THEDFORD       SUNNY     64  35  34 NW7G18    30.12F
AINSWORTH      MOSUNNY   64  38  38 NW15G25   30.09S
O`NEILL        SUNNY     61  40  46 W13G25    30.09F
BROKEN BOW     SUNNY     64  39  39 W16G23    30.11F
VALENTINE NWR    N/A     62  35  37 NW12        N/A
HALSEY           N/A     63  39  41 W6G13       N/A
BUTTE            N/A     58  41  53 N9G20       N/A
CHAMBERS         N/A     63  43  48 W5          N/A
EWING            N/A     60  46  59 W12G18      N/A
$$

...OBSERVATIONS IN SOUTHWEST NEBRASKA AND FAR NORTHEAST COLORADO...

CITY           SKY/WX    TMP DP  RH WIND       PRES   REMARKS
WRAY           MOCLDY    66  37  34 CALM      30.16F
IMPERIAL       SUNNY     66  41  40 N10       30.15F
OGALLALA       SUNNY     67  37  32 NW12G18   30.14F
NORTH PLATTE   SUNNY     67  39  35 W14G21    30.12F
MCCOOK         MOSUNNY   69  42  37 NW16G23   30.13F
LEXINGTON      SUNNY     66  38  35 W13G22    30.13F
STAPLETON        N/A     68  41  37 CALM        N/A
GOTHENBURG       N/A     64  31  29 W8          N/A
CALLAWAY         N/A     63  44  49 NW20        N/A
$$

...OBSERVATIONS IN CENTRAL LINCOLN COUNTY AREA...

CITY           SKY/WX    TMP DP  RH WIND       PRES   REMARKS
N.P. AIRPORT   SUNNY     67  39  35 W14G21    30.12F
N.P. DOWNTOWN    N/A     66  38  36 W6G16       N/A
N.P. SOUTHEAST   N/A     66  36  33 NW6         N/A
N.P. HILLCREST   N/A     65  37  35 W10         N/A
$$

...SOME OBSERVATIONS FROM AROUND THE REGION...

CITY           SKY/WX    TMP DP  RH WIND       PRES   REMARKS
DENVER         MOSUNNY   63  34  33 SE12G17   30.18F
LIMON          CLOUDY    61  36  39 E8        30.19F
ASPEN          CLOUDY    55  24  30 W7        30.24F
LARAMIE        CLOUDY    49  35  58 N10G16    30.23F
CASPER         PTSUNNY   55  36  48 CALM      30.21F
CHEYENNE       PTSUNNY   53  35  50 NW10      30.22S
SCOTTSBLUFF    PTSUNNY   56  44  64 N21       30.16R
GRAND ISLAND   MOSUNNY   66  39  37 W13G18    30.12F
OMAHA          MOSUNNY   61  42  49 W20G26    30.07F
SIOUX FALLS    CLOUDY    52  43  71 NW21G28   30.01S
PIERRE         SUNNY     64  37  36 NW15      30.02F
RAPID CITY     CLOUDY    65  36  34 N16       30.07F
BISMARCK       SUNNY     68  32  26 N13G20    29.95F
KANSAS CITY    MOSUNNY   65  41  41 W16G26    30.12F
HILL CITY      MOSUNNY   72  44  36 W9        30.13F
WICHITA        MOSUNNY   71  48  43 W10       30.16F
DODGE CITY     CLOUDY    65  50  58 N8        30.18F
OKLAHOMA CITY  MOSUNNY   71  46  40 SE5       30.17F
DALLAS         PTSUNNY   80  49  33 NE8G20    30.11F
AMARILLO       SUNNY     75  42  30 S21G28    30.16F
$$




USA.gov is the U.S. government's official web portal to all federal, state and local government web resources and services.